Home   Weather   Lustenau   Past weeks

Flag for Austria Past Weather in Lustenau, Vorarlberg, Austria — Yesterday and Last 2 Weeks

Now
61 °F

Passing clouds.


Feels Like: 61 °F
Forecast: 43 / 61 °F
Wind: 10 mph from Southwest

Location: Saint Gallen-Altenrhein

Current Time: Apr 24, 2017 at 11:02:17 pm

Latest Report: Apr 24, 2017 at 10:20 pm


Visibility: N/A

Pressure: 29.83 "Hg

Humidity: 45%

Dew Point: 39 °F

Location of LustenauLocation

Past Weather in Lustenau — Graph

°F

Lustenau Temperature Yesterday

Maximum temperature yesterday: 54 °F (at 5:50 pm)
Minimum temperature yesterday: 39 °F (at 5:50 am)
Average temperature yesterday: 45 °F

High & Low Weather Summary for the Past Weeks

 TemperatureHumidityPressure
High73 °F (Apr 10, 3:50 pm)100% (Apr 16, 5:20 pm)30.51 "Hg (Apr 16, 5:20 pm)
Low28 °F (Apr 20, 4:50 am)22% (Apr 21, 6:50 pm)29.83 "Hg (Apr 24, 8:50 pm)
Average47 °F69%30.17 "Hg
* Reported Apr 9 9:20 pm — Apr 24 9:50 pm, Lustenau, Weather by CustomWeather, © 2017

Note: Actual official high and low records may vary slightly from our data, if they occured in-between our weather recording intervals... More about our weather records

Advertising

Lustenau Weather History for the Previous 24 Hours

Scroll right to see more
 ConditionsComfort  
Time TempWeatherWind HumidityBarometerVisibility
9:50 pm
Mon, Apr 24
61 °FClear.12 mph45%29.83 "Hg10 mi
9:20 pm59 °FRefreshingly cool.9 mph51%29.83 "HgN/A
8:50 pm57 °FClear.3 mph59%29.83 "HgN/A
8:20 pm59 °FSunny.2 mph55%29.86 "Hg10 mi
7:50 pm59 °FRefreshingly cool.5 mph51%29.86 "HgN/A
7:20 pm61 °FPassing clouds.5 mph45%29.86 "HgN/A
6:50 pm61 °FRefreshingly cool.2 mph48%29.89 "HgN/A
6:20 pm63 °FPassing clouds.3 mph37%29.89 "HgN/A
5:50 pm63 °FSunny.2 mph42%29.89 "Hg10 mi
5:20 pm61 °FSunny.3 mph45%29.89 "Hg10 mi
4:50 pm59 °FSunny.3 mph45%29.92 "Hg10 mi
4:20 pm59 °FPassing clouds.5 mph48%29.92 "HgN/A
3:50 pm57 °FSunny.3 mph48%29.95 "Hg10 mi
3:20 pm57 °FPassing clouds.5 mph51%29.98 "HgN/A
2:50 pm55 °FPassing clouds.6 mph44%29.98 "HgN/A
2:20 pm55 °FSunny.2 mph47%29.98 "Hg10 mi
1:50 pm54 °FSunny.2 mph51%30.01 "Hg10 mi
1:20 pm54 °FSunny.2 mph58%30.01 "Hg10 mi
12:50 pm48 °FSunny.6 mph66%30.04 "Hg10 mi
12:20 pm48 °FSunny.6 mph66%30.04 "Hg10 mi
11:50 am46 °FCool.5 mph66%30.07 "HgN/A
11:20 am48 °FPassing clouds.5 mph71%30.07 "HgN/A
10:50 am45 °FPassing clouds.5 mph66%30.07 "HgN/A
10:20 am45 °FPassing clouds.5 mph76%30.07 "HgN/A
9:50 am43 °FPassing clouds.5 mph71%30.07 "HgN/A
9:20 am43 °FPassing clouds.5 mph76%30.09 "HgN/A
8:50 am41 °FSunny.5 mph81%30.09 "Hg10 mi
8:20 am41 °FSunny.5 mph81%30.09 "Hg10 mi
7:50 am36 °FSunny.2 mph87%30.09 "Hg10 mi
7:20 am36 °FSunny.2 mph87%30.09 "Hg10 mi
6:50 am32 °FSunny.2 mph93%30.09 "Hg10 mi
6:20 am32 °FSunny.2 mph93%30.09 "Hg10 mi
5:50 am34 °FClear.2 mph87%30.09 "Hg10 mi
5:20 am34 °FClear.2 mph93%30.09 "Hg10 mi
4:50 am34 °FClear.2 mph87%30.12 "Hg10 mi
4:20 am34 °FClear.2 mph87%30.12 "Hg10 mi
3:50 am36 °FClear.1 mph93%30.12 "Hg10 mi
3:20 am36 °FClear.1 mph87%30.12 "Hg10 mi
2:50 am43 °FPassing clouds.3 mph71%30.12 "HgN/A
2:20 am37 °FClear.3 mph81%30.15 "Hg10 mi
1:50 am41 °FClear.6 mph76%30.15 "Hg10 mi
1:20 am39 °FClear.5 mph75%30.15 "Hg10 mi
12:50 am39 °FClear.3 mph81%30.18 "Hg10 mi
12:20 am41 °FClear.2 mph76%30.18 "Hg10 mi
11:50 pm
Sun, Apr 23
39 °FClear.3 mph75%30.18 "Hg10 mi
11:20 pm45 °FPassing clouds.7 mph66%30.18 "HgN/A
Weather by CustomWeather, © 2017

See weather overviewHow to use our weather pages